Regional Weather Roundup
Issued by NWS

Home | Current Version | Previous Version | Graphics & Text | Print | Product List | Glossary On
Versions: 1 2 3 4 5 6 7 8 9 10 11 12 13 14 15 16 17 18 19 20 21 22 23 24 25 26 27 28 29 30 31 32 33 34 35 36 37 38 39 40 41 42 43 44 45 46 47 48 49 50
000
ASUS43 KMKX 270159
RWRWI

WISCONSIN REGIONAL WEATHER ROUNDUP
NATIONAL WEATHER SERVICE MILWAUKEE/SULLIVAN WI
800 PM CST THU FEB 26 2015

NOTE: "FAIR" INDICATES FEW OR NO CLOUDS BELOW 12,000 FEET WITH NO
SIGNIFICANT WEATHER AND/OR OBSTRUCTIONS TO VISIBILITY.

WIZ001-002-006>008-014>016-023>028-270300-
NORTHWEST WISCONSIN

CITY           SKY/WX    TMP DP  RH WIND       PRES   REMARKS
SUPERIOR ARPT  CLEAR      5 -10  49 W8        30.44R WCI  -8
ASHLAND        CLEAR      4 -11  50 SW7       30.39S WCI  -8
HAYWARD        CLEAR     -4 -14  62 CALM      30.37S
SIREN          CLEAR      3 -10  55 W6        30.43R WCI  -8
CUMBERLAND     CLEAR      1 -13  51 NW7       30.39R WCI -11
RICE LAKE      CLEAR      2 -11  55 CALM      30.42R
CHETEK         CLEAR      1 -10  60 W3        30.40S
LADYSMITH      CLEAR      0 -12  57 NW5       30.38R WCI -10
EAU CLAIRE     NOT AVBL
MENOMONIE      CLEAR      4  -8  55 W5        30.44R WCI  -5
NEW RICHMOND   CLEAR      0 -11  60 W5        30.44R WCI -10
OSCEOLA        CLEAR      3 -10  55 W6        30.48R WCI  -8
$$

WIZ003>005-009-010-017-018-270300-
NORTH CENTRAL WISCONSIN

CITY           SKY/WX    TMP DP  RH WIND       PRES   REMARKS
MANITOWISH WTR CLEAR     -3 -13  63 NW3       30.29R
ARBOR VITAE    CLEAR     -4 -12  69 CALM      30.29R
WOODRUFF       CLEAR     -4 -12  69 CALM      30.29R
RHINELANDER    CLEAR      0 -11  59 NW5       30.28S WCI -10
EAGLE RIVER    CLEAR     -6 -14  65 CALM      30.27S
LAND O LAKES   CLEAR    -10 -15  77 CALM      30.28R
PHILLIPS       CLEAR      1 -11  56 CALM      30.31R
TOMAHAWK       CLEAR     -6 -14  70 CALM      30.31R
MEDFORD        CLEAR      1 -10  60 W5        30.32R WCI  -8
MERRILL        CLEAR      3 -10  55 CALM      30.32R
$$

WIZ029-030-035-036-043>047-270300-
CENTRAL WISCONSIN

CITY           SKY/WX    TMP DP  RH WIND       PRES   REMARKS
WAUSAU         CLEAR      4  -9  55 NW6       30.32R WCI  -7
MOSINEE        CLEAR      3  -8  60 W8        30.34R WCI -10
MARSHFIELD     CLEAR      2  -9  60 W6        30.35R WCI  -9
STEVENS POINT  CLEAR      4  -8  58 W5        30.35S WCI  -6
WAUPACA        CLEAR      8  -7  49 W6        30.37R WCI  -2
WAUTOMA        NOT AVBL
WISC RAPIDS    CLEAR      3 -10  54 W5        30.38R WCI  -6
CAMP DOUGLAS   NOT AVBL
$$

WIZ011>013-019>022-031-037>040-048>050-270300-
NORTHEAST WISCONSIN

CITY           SKY/WX    TMP DP  RH WIND       PRES   REMARKS
ANTIGO         CLEAR      1 -10  58 NW3       30.29R
SHAWANO        CLEAR      8  -8  47 CALM      30.35S
OCONTO         CLEAR     -2  -6  80 CALM      30.36S
STURGEON BAY   CLEAR      1  -8  66 SW3       30.36S
GREEN BAY      CLEAR      6  -3  66 SW5       30.36R WCI  -3
MANITOWOC      NOT AVBL
APPLETON       PTCLDY     5  -9  51 W7        30.35R WCI  -7
CLINTONVILLE   CLEAR      9  -8  47 W6        30.35R WCI  -1
OSHKOSH        CLEAR      7  -6  55 W6        30.36R WCI  -3
$$

WIZ032>034-041-042-053>061-270300-
SOUTHWEST WISCONSIN

CITY           SKY/WX    TMP DP  RH WIND       PRES   REMARKS
LA CROSSE      CLEAR      1  -9  62 NW5       30.46R WCI  -9
SPARTA         CLEAR     -1  -9  68 CALM      30.43R
VIROQUA        CLEAR      2  -8  63 NW5       30.37S WCI  -8
BOSCOBEL       CLEAR      2  -7  66 CALM      30.45R
PRAIRIE DU CHI CLEAR      4  -9  56 NW5       30.46R WCI  -6
PLATTEVILLE    CLEAR      5  -6  60 W6        30.39R WCI  -6
$$

WIZ056-057-062-063-064-067-068-270300-
SOUTH CENTRAL WISCONSIN

CITY           SKY/WX    TMP DP  RH WIND       PRES   REMARKS
REEDSBURG      PTCLDY     7  -6  56 NW5       30.39R WCI  -2
BARABOO/DELLS  CLEAR      4  -9  53 CALM      30.38R
LONE ROCK      NOT AVBL
MINERAL POINT  CLEAR      5  -8  56 NW3       30.37R
MADISON        CLEAR      4  -8  57 NW3       30.39R
MIDDLETON      CLEAR      0  -9  64 NW3       30.38R
WATERTOWN      FAIR       1  -7  71 CALM      30.37R
MONROE         CLEAR      9  -4  56 NW8       30.36R WCI  -4
JANESVILLE     CLEAR      5  -6  61 CALM      30.39R
$$

WIZ051-052-058>065-066-070>072-270300-
SOUTHEAST WISCONSIN

CITY           SKY/WX    TMP DP  RH WIND       PRES   REMARKS
MILWAUKEE      CLEAR      9  -6  50 NW7       30.38R WCI  -2
WAUKESHA       CLEAR      3  -6  66 CALM      30.38R
MILWAUKEE/TIMM CLEAR      7  -8  51 N5        30.39R WCI  -2
RACINE         CLEAR      7  -6  55 NW7       30.40R WCI  -5
BURLINGTON     CLEAR     -1  -9  67 CALM      30.38R
KENOSHA        CLEAR      5  -7  57 NW6       30.38R WCI  -6
FOND DU LAC    CLEAR      6  -6  57 W6        30.37R WCI  -4
SHEBOYGAN      CLEAR      1  -6  72 W5        30.37R WCI  -9
WEST BEND      FAIR       5  -6  61 CALM      30.36R
JUNEAU         FAIR       6  -5  61 CALM      30.38R
$$

LSZ147-162-270300-
LAKE SUPERIOR

STATION/POSITION TIME  TEMP    WIND        PRES    WAVE
                       AIR SEA DIR/SP/G            HT/PER
                 (UTC) (F)     (DEG/KT/KT) (MB)    (FT/S)
DEVILS ISLAND    0100    9     300/ 17/ 19 1030.2R
PORT WING        0100   10     290/ 12/ 15 1029.5R
SAXON HARBOR     0140    2      CALM  /  6 1029.1R
$$

LMZ867-665-643>646-270300-
LAKE MICHIGAN

STATION/POSITION TIME  TEMP    WIND        PRES    WAVE
                       AIR SEA DIR/SP/G            HT/PER
                 (UTC) (F)     (DEG/KT/KT) (MB)    (FT/S)
NORTHPORT PIER   0123    4     250/  3/  4 1027.8R
SISTER BAY       0128    2        CALM       N/A
KEWAUNEE LAKESHO 0100    5      CALM  /  3 1027.1R
SHEBOYGAN LAKESH 0100   10     300/  4/  5 1030.4R
PORT WASHINGTON  0140    9     300/  4/  4 1029.8R
MILWAUKEE LAKESH 0100   11     320/  6/  8   N/A
KENOSHA   LAKESH 0100    9     310/  9/ 12 1028.4R
$$

TC  - TEMPERATURE IN CELSIUS
VSB - VISIBILITY IN STATUTE MILES
WCI - WIND CHILL INDEX
HX  - HEAT INDEX



USA.gov is the U.S. government's official web portal to all federal, state and local government web resources and services.